"2016-03-29 00:00:00",1498971,5.048,137.1,5.329,0.993,16.18,105.1883,12.55,13.67,22.69,0,110.5,13.14,13.35,99.1
"2016-03-29 00:00:30",1498972,4.156,130.5,2.094,0.177,15.38,105.1821,12.54,13.57,22.61,0,110.5,13.19,13.33,92.5
"2016-03-29 00:01:00",1498973,4.043,123.7,6.515,0.283,15.46,105.1801,12.53,13.63,22.86,0,110.5,13.19,13.33,85.7
"2016-03-29 00:01:30",1498974,5.706,135,9.17,1.383,18,105.1782,12.53,13.72,23.06,0,110.5,13.14,13.32,97.0
"2016-03-29 00:02:00",1498975,5.026,132.7,7.6,1.485,17.49,105.1768,12.52,13.74,23.22,0,110.5,13.14,13.32,94.7
"2016-03-29 00:02:30",1498976,5.013,131.5,8.58,1.482,17.39,105.1765,12.52,13.65,23.23,0,110.5,13.14,13.32,93.5
"2016-03-29 00:03:00",1498977,3.786,122.3,2.234,0.273,14.99,105.1759,12.52,13.54,23.2,0,110.5,13.19,13.32,84.3
"2016-03-29 00:03:30",1498978,3.675,124.3,4.382,0.23,14.95,105.1759,12.52,13.54,23.25,0,110.4,13.19,13.32,86.3
"2016-03-29 00:04:00",1498979,3.472,122.5,2.639,0.248,15.01,105.1759,12.52,13.57,23.33,0,110.5,13.19,13.32,84.5
"2016-03-29 00:04:30",1498980,4.726,133,7.755,1.361,17.55,105.1759,12.52,13.7,23.55,0,110.5,13.14,13.32,95.0
"2016-03-29 00:05:00",1498981,4.29,130.6,7.618,0.947,15.97,105.1759,12.52,13.63,23.54,0,110.4,13.14,13.32,92.6
"2016-03-29 00:05:30",1498982,4.049,123.7,4.746,0.14,14.93,105.1759,12.52,13.53,23.47,0,110.4,13.19,13.32,85.7
"2016-03-29 00:06:00",1498983,4.093,126.2,3.88,0.163,15.03,105.1759,12.52,13.53,23.52,0,110.4,13.19,13.32,88.2
"2016-03-29 00:06:30",1498984,5.395,130.3,7.716,1.451,17.35,105.1731,12.52,13.64,23.69,0,110.4,13.15,13.31,92.3
"2016-03-29 00:07:00",1498985,5.587,136.6,7.573,1.461,18.01,105.1672,12.5,13.77,23.81,0,110.4,13.14,13.30,98.6
"2016-03-29 00:07:30",1498986,5.163,130.2,8.22,1.576,17.27,105.1573,12.48,13.62,23.59,0,110.4,13.14,13.27,92.2
"2016-03-29 00:08:00",1498987,4.139,127.5,2.675,0.235,15.32,105.1446,12.44,13.54,23.59,0,110.4,13.19,13.24,89.5
"2016-03-29 00:08:30",1498988,4.031,121.8,1.963,0.327,14.92,105.1421,12.44,13.5,23.69,0,110.4,13.19,13.23,83.8
"2016-03-29 00:09:00",1498989,4.669,129.8,5.432,1.09,15.99,105.1421,12.44,13.54,23.8,0,110.4,13.15,13.23,91.8
"2016-03-29 00:09:30",1498990,5.523,128,7.143,1.369,17.07,105.1421,12.44,13.58,23.78,0,110.5,13.15,13.23,90.0
"2016-03-29 00:10:00",1498991,4.976,128.8,7.364,1.188,16.43,105.1421,12.44,13.58,23.77,0,110.4,13.15,13.23,90.8
"2016-03-29 00:10:30",1498992,4.989,125.6,2.579,0.209,15.12,105.1421,12.44,13.46,23.64,0,110.4,13.19,13.23,87.6
"2016-03-29 00:11:00",1498993,4.23,125.1,2.074,0.252,15.19,105.1421,12.44,13.46,23.67,0,110.4,13.19,13.23,87.1
"2016-03-29 00:11:30",1498994,4.898,129.7,3.78,1.164,16.74,105.1421,12.44,13.57,23.78,0,110.4,13.14,13.23,91.7
"2016-03-29 00:12:00",1498995,5.279,129,6.289,1.549,18,105.1407,12.43,13.68,24.05,0,110.4,13.14,13.23,91.0
"2016-03-29 00:12:30",1498996,4.687,121.7,7.117,1.3,16.87,105.1381,12.43,13.58,24.14,0,110.4,13.14,13.22,83.7
"2016-03-29 00:13:00",1498997,4.709,122.9,8.82,1.419,16.42,105.1345,12.42,13.52,24.1,0,110.4,13.14,13.21,84.9
"2016-03-29 00:13:30",1498998,3.842,118.8,2.725,0.221,14.99,105.1331,12.41,13.45,24.02,0,110.4,13.19,13.21,80.8
"2016-03-29 00:14:00",1498999,4.668,127,6.621,0.847,15.82,105.1283,12.4,13.54,23.88,0,110.4,13.15,13.20,89.0
"2016-03-29 00:14:30",1499000,5.389,130.2,8.8,1.537,17.46,105.1258,12.39,13.55,23.66,0,110.4,13.14,13.19,92.2
"2016-03-29 00:15:00",1499001,4.157,122.2,3.129,0.163,15.34,105.1264,12.4,13.49,23.63,0,110.4,13.19,13.19,84.2
"2016-03-29 00:15:30",1499002,4.148,125.5,3.053,0.199,14.98,105.1247,12.39,13.44,23.73,0,110.4,13.19,13.19,87.5
"2016-03-29 00:16:00",1499003,4.029,124.6,3.185,0.152,15.03,105.1311,12.41,13.42,23.84,0,110.4,13.2,13.20,86.6
"2016-03-29 00:16:30",1499004,4.879,128.5,7.409,1.418,16.48,105.1297,12.4,13.47,23.85,0,110.4,13.15,13.20,90.5
"2016-03-29 00:17:00",1499005,5.373,127,7.563,1.406,16.95,105.1298,12.4,13.58,23.95,0,110.4,13.15,13.20,89.0
"2016-03-29 00:17:30",1499006,5.531,131.9,7.224,1.531,18.26,105.1239,12.39,13.61,23.93,0,110.4,13.15,13.18,93.9
"2016-03-29 00:18:00",1499007,4.654,122.6,8.37,1.246,16.71,105.1245,12.39,13.53,23.95,0,110.4,13.15,13.19,84.6
"2016-03-29 00:18:30",1499008,3.957,123.5,5.665,0.352,15.12,105.1206,12.38,13.42,23.81,0,110.4,13.2,13.18,85.5
"2016-03-29 00:19:00",1499009,4.556,129.4,10.74,1.271,16.36,105.1213,12.38,13.52,23.93,0,110.4,13.15,13.18,91.4
"2016-03-29 00:19:30",1499010,5.045,131.2,6.439,1.238,16.67,105.1204,12.38,13.53,23.72,0,110.4,13.16,13.18,93.2
"2016-03-29 00:20:00",1499011,5.079,133.5,4.999,1.05,15.84,105.1222,12.39,13.5,23.67,0,110.4,13.16,13.18,95.5
"2016-03-29 00:20:30",1499012,4.163,129.2,2.45,0.319,14.95,105.124,12.39,13.4,23.67,0,110.4,13.2,13.19,91.2
"2016-03-29 00:21:00",1499013,3.959,124.7,4.905,0.411,15.09,105.1248,12.39,13.41,23.82,0,110.4,13.2,13.19,86.7
"2016-03-29 00:21:30",1499014,4.501,129.4,3.782,0.156,15.38,105.1245,12.39,13.4,23.58,0,110.4,13.2,13.19,91.4
"2016-03-29 00:22:00",1499015,5.762,130.4,10.13,1.669,18.3,105.1266,12.4,13.64,23.72,0,110.4,13.16,13.19,92.4
"2016-03-29 00:22:30",1499016,5.89,130.3,8.39,1.315,18.62,105.1269,12.4,13.55,23.75,0,110.4,13.16,13.19,92.3
"2016-03-29 00:23:00",1499017,4.374,124.9,5.887,1.264,17.01,105.129,12.4,13.59,24,0,110.4,13.16,13.20,86.9
"2016-03-29 00:23:30",1499018,3.473,120.6,8.47,0.57,15.18,105.1287,12.4,13.41,24.16,0,110.4,13.16,13.20,82.6
"2016-03-29 00:24:00",1499019,4.644,124.6,8.88,1.363,15.73,105.1296,12.4,13.43,24,0,110.4,13.16,13.20,86.6
"2016-03-29 00:24:30",1499020,5.927,130.9,8.56,1.534,17.67,105.129,12.4,13.58,23.99,0,110.4,13.16,13.20,92.9
"2016-03-29 00:25:00",1499021,5.335,141.3,5.888,0.713,15.18,105.129,12.4,13.4,23.43,0,110.4,13.16,13.20,103.3
"2016-03-29 00:25:30",1499022,4.585,134.1,2.824,0.428,15.01,105.1314,12.41,13.41,23.58,0,110.4,13.2,13.20,96.1
"2016-03-29 00:26:00",1499023,4.498,129.7,3.418,0.237,15.11,105.1311,12.41,13.4,23.87,0,110.4,13.2,13.20,91.7
"2016-03-29 00:26:30",1499024,3.726,120.7,4.661,0.256,15.23,105.1352,12.42,13.39,23.99,0,110.4,13.21,13.21,82.7
"2016-03-29 00:27:00",1499025,4.31,131.3,6.653,1.427,17.11,105.1344,12.42,13.57,24.28,0,110.4,13.16,13.21,93.3
"2016-03-29 00:27:30",1499026,4.785,131.4,9.6,1.493,17.15,105.1327,12.41,13.46,24.47,0,110.4,13.16,13.21,93.4
"2016-03-29 00:28:00",1499027,5.35,140.1,6.38,1.388,17.88,105.1302,12.41,13.58,24.65,0,110.4,13.15,13.20,102.1
"2016-03-29 00:28:30",1499028,4.384,134.2,7.15,0.873,15.54,105.1297,12.4,13.39,24.51,0,110.4,13.15,13.20,96.2
"2016-03-29 00:29:00",1499029,5.323,139.5,9.15,1.49,16.67,105.1264,12.4,13.52,24.46,0,110.4,13.15,13.19,101.5
"2016-03-29 00:29:30",1499030,5.1,131.3,6.5,1.14,16.55,105.1253,12.39,13.51,24.53,0,110.4,13.15,13.19,93.3
"2016-03-29 00:30:00",1499031,4.073,132.3,6.137,0.201,14.75,105.1217,12.38,13.39,24.53,0,110.4,13.2,13.18,94.3
"2016-03-29 00:30:30",1499032,3.276,119.3,7.4,0.337,14.73,105.1156,12.37,13.36,24.72,0,110.4,13.2,13.16,81.3
"2016-03-29 00:31:00",1499033,3.658,125.9,4.669,0.292,15.04,105.1105,12.36,13.37,24.6,0,110.4,13.2,13.15,87.9
"2016-03-29 00:31:30",1499034,3.546,125.8,5.341,0.261,15.11,105.11,12.35,13.37,24.66,0,110.4,13.2,13.15,87.8
"2016-03-29 00:32:00",1499035,5.321,135.2,6.774,1.432,17.41,105.1094,12.35,13.53,24.87,0,110.4,13.15,13.15,97.2
"2016-03-29 00:32:30",1499036,4.745,132.5,9.36,1.628,17.52,105.1091,12.35,13.55,24.51,0,110.4,13.15,13.15,94.5
"2016-03-29 00:33:00",1499037,5.631,127.6,8.05,1.558,18.11,105.1097,12.35,13.54,24.87,0,110.4,13.16,13.15,89.6
"2016-03-29 00:33:30",1499038,4.819,124.2,3.922,0.633,15.59,105.11,12.35,13.4,24.47,0,110.4,13.16,13.15,86.2
"2016-03-29 00:34:00",1499039,5.89,136.2,7.359,1.311,17.26,105.11,12.35,13.5,24.2,0,110.4,13.16,13.15,98.2
"2016-03-29 00:34:30",1499040,5.855,129.6,8,1.47,17.37,105.11,12.35,13.46,23.99,0,110.4,13.16,13.15,91.6
"2016-03-29 00:35:00",1499041,5.093,123.8,3.36,0.463,15.02,105.11,12.35,13.33,24.17,0,110.4,13.21,13.15,85.8
"2016-03-29 00:35:30",1499042,4.761,119.4,8.71,0.236,14.88,105.11,12.35,13.35,24.37,0,110.4,13.21,13.15,81.4
"2016-03-29 00:36:00",1499043,3.857,116.7,5.065,0.461,14.9,105.11,12.35,13.35,24.8,0,110.4,13.21,13.15,78.7
"2016-03-29 00:36:30",1499044,4.108,126.6,3.911,0.194,15.26,105.11,12.35,13.34,24.69,0,110.4,13.21,13.15,88.6
"2016-03-29 00:37:00",1499045,4.683,126.9,5.362,1.153,16.85,105.11,12.35,13.45,24.7,0,110.4,13.16,13.15,88.9
"2016-03-29 00:37:30",1499046,5.528,133.8,8.49,1.687,19.06,105.11,12.35,13.57,24.72,0,110.4,13.16,13.15,95.8
"2016-03-29 00:38:00",1499047,4.678,124,12.06,1.3,18.09,105.11,12.35,13.57,24.68,0,110.4,13.16,13.15,86.0
"2016-03-29 00:38:30",1499048,4.035,126.2,6.578,0.6,15.5,105.11,12.35,13.33,24.48,0,110.4,13.16,13.15,88.2
"2016-03-29 00:39:00",1499049,4.155,125.7,9.18,1.25,16.88,105.1097,12.35,13.52,24.71,0,110.4,13.16,13.15,87.7
"2016-03-29 00:39:30",1499050,4.614,118.9,12.23,1.424,16.35,105.1094,12.35,13.45,24.78,0,110.4,13.16,13.15,80.9
"2016-03-29 00:40:00",1499051,4.161,116.2,11.52,0.233,14.72,105.1069,12.35,13.33,24.85,0,110.4,13.21,13.14,78.2
"2016-03-29 00:40:30",1499052,3.966,114.1,10.4,0.352,14.68,105.1046,12.34,13.34,24.87,0,110.4,13.21,13.14,76.1
"2016-03-29 00:41:00",1499053,3.764,130.3,4.234,0.514,14.95,105.0993,12.33,13.32,24.86,0,110.4,13.21,13.12,92.3
"2016-03-29 00:41:30",1499054,3.171,122.9,2.23,0.212,15.07,105.0933,12.31,13.32,24.99,0,110.4,13.21,13.11,84.9
"2016-03-29 00:42:00",1499055,4.513,126.9,6.469,1.336,16.87,105.0874,12.3,13.43,25.07,0,110.4,13.16,13.09,88.9
"2016-03-29 00:42:30",1499056,5.009,128.2,11.42,1.278,18.02,105.0902,12.3,13.54,25.28,0,110.4,13.16,13.10,90.2
"2016-03-29 00:43:00",1499057,4.613,114.5,9.52,1.302,17.56,105.0829,12.28,13.44,25.53,0,110.4,13.16,13.08,76.5
"2016-03-29 00:43:30",1499058,4.636,132.2,11.04,1.378,16.53,105.0775,12.27,13.42,25.4,0,110.4,13.16,13.07,94.2
"2016-03-29 00:44:00",1499059,4.447,135.8,8.7,1.441,17.25,105.0761,12.27,13.5,25.52,0,110.4,13.16,13.06,97.8
"2016-03-29 00:44:30",1499060,4.563,135.9,5.726,1.284,16.21,105.0761,12.27,13.4,25.3,0,110.4,13.16,13.06,97.9
"2016-03-29 00:45:00",1499061,4.18,132,7.227,0.353,14.8,105.0761,12.27,13.29,25.17,0,110.4,13.2,13.06,94.0
"2016-03-29 00:45:30",1499062,4.025,128.7,7.404,0.354,14.75,105.0742,12.26,13.3,25.26,0,110.4,13.2,13.06,90.7
"2016-03-29 00:46:00",1499063,4.314,132.9,2.979,0.416,15.08,105.0694,12.25,13.28,25.35,0,110.4,13.2,13.04,94.9
"2016-03-29 00:46:30",1499064,4.781,130.5,4.584,0.305,15.31,105.0643,12.24,13.27,25.16,0,110.4,13.2,13.03,92.5
"2016-03-29 00:47:00",1499065,4.618,119.8,6.672,1.25,16.73,105.0564,12.22,13.36,25.48,0,110.4,13.16,13.01,81.8
"2016-03-29 00:47:30",1499066,5.627,129.5,10.43,1.49,18.61,105.0474,12.19,13.47,25.5,0,110.4,13.16,12.99,91.5
"2016-03-29 00:48:00",1499067,5.679,133.4,6.904,1.489,17.35,105.0452,12.19,13.37,25.05,0,110.4,13.16,12.98,95.4
"2016-03-29 00:48:30",1499068,4.916,128,8.37,1.51,17.27,105.0452,12.19,13.4,25.09,0,110.4,13.16,12.98,90.0
"2016-03-29 00:49:00",1499069,5.639,130.2,7.333,1.358,17.71,105.0438,12.18,13.39,25.09,0,110.4,13.15,12.98,92.2
"2016-03-29 00:49:30",1499070,3.946,131.2,9.59,0.587,15,105.0467,12.19,13.24,25,0,110.4,13.2,12.99,93.2
"2016-03-29 00:50:00",1499071,3.814,121.5,7.296,0.362,14.86,105.0453,12.19,13.24,24.91,0,110.4,13.21,12.98,83.5
"2016-03-29 00:50:30",1499072,3.748,129.8,5.268,0.427,15.03,105.0485,12.2,13.22,24.95,0,110.4,13.21,12.99,91.8
"2016-03-29 00:51:00",1499073,3.958,129.1,9.14,0.364,15.22,105.0488,12.2,13.21,25.03,0,110.4,13.21,12.99,91.1
"2016-03-29 00:51:30",1499074,3.781,126.8,4.637,0.411,15.4,105.05,12.2,13.23,25.08,0,110.4,13.21,13.00,88.8
"2016-03-29 00:52:00",1499075,5.915,134.2,7.342,1.312,17.41,105.0503,12.2,13.31,25.16,0,110.4,13.16,13.00,96.2
"2016-03-29 00:52:30",1499076,5.676,135.2,9.98,1.285,18.02,105.0509,12.2,13.43,25.24,0,110.4,13.17,13.00,97.2
"2016-03-29 00:53:00",1499077,5.186,136,8.49,1.619,17.75,105.0521,12.21,13.33,25.24,0,110.4,13.16,13.00,98.0
"2016-03-29 00:53:30",1499078,5.576,141.4,6.687,1.17,17.32,105.0538,12.21,13.42,25.46,0,110.4,13.16,13.00,103.4
"2016-03-29 00:54:00",1499079,5.63,142.4,9.03,1.551,17.13,105.0562,12.22,13.34,25.42,0,110.4,13.16,13.01,104.4
"2016-03-29 00:54:30",1499080,4.395,133.4,4.967,0.343,14.91,105.0559,12.22,13.22,25.3,0,110.4,13.21,13.01,95.4
"2016-03-29 00:55:00",1499081,3.411,133.6,4.297,0.598,14.9,105.0577,12.22,13.22,25.26,0,110.4,13.21,13.01,95.6
"2016-03-29 00:55:30",1499082,2.83,126.2,3.931,0.233,14.94,105.0562,12.22,13.21,25.34,0,110.4,13.21,13.01,88.2
"2016-03-29 00:56:00",1499083,3.237,123.4,5.837,0.237,15.13,105.0569,12.22,13.21,25.49,0,110.4,13.21,13.01,85.4
"2016-03-29 00:56:30",1499084,3.366,138.3,4.784,0.223,15.47,105.0553,12.21,13.2,25.45,0,110.4,13.21,13.01,100.3
"2016-03-29 00:57:00",1499085,4.716,132.6,6.158,1.412,17.35,105.0574,12.22,13.38,25.72,0,110.4,13.17,13.01,94.6
"2016-03-29 00:57:30",1499086,5.146,139,8.51,1.628,18.6,105.0552,12.21,13.33,25.76,0,110.4,13.17,13.01,101.0
"2016-03-29 00:58:00",1499087,4.478,123.8,6.15,1.414,17.09,105.0542,12.21,13.34,25.78,0,110.4,13.17,13.01,85.8
"2016-03-29 00:58:30",1499088,4.195,141.7,8.93,1.415,17.76,105.0476,12.19,13.37,25.8,0,110.4,13.17,12.99,103.7
"2016-03-29 00:59:00",1499089,4.081,129.9,10.37,1.298,16.46,105.0461,12.19,13.31,25.73,0,110.4,13.17,12.99,91.9
"2016-03-29 00:59:30",1499090,3.455,126.5,4.818,0.258,14.65,105.0368,12.17,13.18,25.83,0,110.4,13.21,12.96,88.5
"2016-03-29 01:00:00",1499091,3.518,129.9,4.073,0.272,14.63,105.0369,12.17,13.19,25.86,0,110.4,13.21,12.96,91.9
"2016-03-29 01:00:30",1499092,3.408,132.4,4.559,0.468,14.86,105.0375,12.17,13.18,25.88,0,110.4,13.21,12.96,94.4
"2016-03-29 01:01:00",1499093,3.43,133.3,7.603,0.367,15.16,105.0416,12.18,13.17,25.77,0,110.4,13.22,12.97,95.3
"2016-03-29 01:01:30",1499094,3.462,127.8,6.693,0.35,15.38,105.0416,12.18,13.17,25.85,0,110.4,13.22,12.97,89.8
"2016-03-29 01:02:00",1499095,3.927,139.4,7.718,1.378,16.78,105.0398,12.17,13.26,25.97,0,110.4,13.17,12.97,101.4
"2016-03-29 01:02:30",1499096,5.349,143.3,7.97,1.575,18.57,105.0393,12.17,13.37,26.25,0,110.4,13.17,12.97,105.3
"2016-03-29 01:03:00",1499097,4.891,135.6,6.162,1.406,17.93,105.0383,12.17,13.34,26.37,0,110.4,13.17,12.96,97.6
"2016-03-29 01:03:30",1499098,5.058,147.7,10.95,1.417,18.82,105.0338,12.16,13.41,26.67,0,110.4,13.17,12.95,109.7
"2016-03-29 01:04:00",1499099,4.614,136.7,5.204,1.031,16.19,105.0298,12.15,13.25,26.59,0,110.4,13.17,12.94,98.7
"2016-03-29 01:04:30",1499100,3.538,143.9,6.458,0.137,14.81,105.0257,12.14,13.15,26.22,0,110.4,13.21,12.93,105.9
"2016-03-29 01:05:00",1499101,3.542,137.1,2.722,0.203,14.63,105.0183,12.12,13.13,26.31,0,110.4,13.21,12.91,99.1
"2016-03-29 01:05:30",1499102,3.276,131.9,4.216,0.249,14.75,105.0101,12.1,13.12,26.72,0,110.4,13.21,12.89,93.9
"2016-03-29 01:06:00",1499103,3.366,137.5,12.03,0.174,15.1,105.0101,12.1,13.14,26.85,0,110.4,13.21,12.89,99.5
"2016-03-29 01:06:30",1499104,2.905,146.4,10.23,0.339,15.35,105.0101,12.1,13.12,26.45,0,110.4,13.22,12.89,108.4
"2016-03-29 01:07:00",1499105,3.046,143.1,4.895,0.866,16.03,105.0101,12.1,13.21,26.88,0,110.4,13.18,12.89,105.1
"2016-03-29 01:07:30",1499106,4.573,153.6,7.112,1.463,18.48,105.0101,12.1,13.24,26.92,0,110.4,13.18,12.89,115.6
"2016-03-29 01:08:00",1499107,4.456,152.4,6.877,1.437,18.2,105.0093,12.1,13.29,26.87,0,110.4,13.18,12.89,114.4
"2016-03-29 01:08:30",1499108,4.371,157,7.923,1.31,18.03,105.0045,12.08,13.26,26.65,0,110.4,13.18,12.88,119.0
"2016-03-29 01:09:00",1499109,3.243,143.7,14.27,1.379,16.41,104.9969,12.06,13.2,26.37,0,110.4,13.18,12.86,105.7
"2016-03-29 01:09:30",1499110,2.338,137.5,8.22,0.197,14.6,104.9876,12.04,13.06,27.01,0,110.4,13.22,12.83,99.5
"2016-03-29 01:10:00",1499111,2.649,142.2,4.028,0.16,14.47,104.9802,12.02,13.07,26.88,0,110.4,13.22,12.82,104.2
"2016-03-29 01:10:30",1499112,2.61,143.8,5.536,0.165,14.64,104.9771,12.01,13.05,26.74,0,110.4,13.22,12.81,105.8
"2016-03-29 01:11:00",1499113,2.92,142.2,3.037,0.163,15,104.9763,12.01,13.05,26.5,0,110.4,13.22,12.81,104.2
"2016-03-29 01:11:30",1499114,2.838,140.9,5.029,0.188,15.19,104.9763,12.01,13.05,26.55,0,110.4,13.23,12.81,102.9
"2016-03-29 01:12:00",1499115,2.888,141.1,5.084,0.125,15.38,104.9763,12.01,13.04,26.88,0,110.4,13.23,12.81,103.1
"2016-03-29 01:12:30",1499116,3.76,149.4,7.689,1.39,17.35,104.9763,12.01,13.18,26.92,0,110.4,13.18,12.81,111.4
"2016-03-29 01:13:00",1499117,4.38,154.9,8.68,1.409,19.12,104.9757,12.01,13.29,27.01,0,110.4,13.18,12.80,116.9
"2016-03-29 01:13:30",1499118,3.772,155,6.746,1.397,17.42,104.9704,12,13.13,26.8,0,110.4,13.18,12.79,117.0
"2016-03-29 01:14:00",1499119,3.501,160.3,7.414,1.285,17.06,104.9608,11.97,13.2,26.72,0,110.4,13.18,12.77,122.3
"2016-03-29 01:14:30",1499120,3.144,158.3,5.53,1.051,15.48,104.9486,11.94,13.01,26.56,0,110.4,13.18,12.73,120.3
"2016-03-29 01:15:00",1499121,2.758,163,2.883,0.113,14.54,104.943,11.93,12.99,26.31,0,110.4,13.23,12.72,125.0
"2016-03-29 01:15:30",1499122,2.619,157.8,2.763,0.101,14.53,104.9425,11.93,12.99,26.4,0,110.4,13.23,12.72,119.8
"2016-03-29 01:16:00",1499123,2.747,161.1,2.509,0.117,14.73,104.9425,11.93,12.98,26.67,0,110.4,13.23,12.72,123.1
"2016-03-29 01:16:30",1499124,2.927,164.7,2.204,0.088,14.94,104.9425,11.93,12.98,26.39,0,110.4,13.23,12.72,126.7
"2016-03-29 01:17:00",1499125,2.904,165,2.43,0.13,15.2,104.9425,11.93,12.97,26.34,0,110.4,13.23,12.72,127.0
"2016-03-29 01:17:30",1499126,2.942,160.8,1.365,0.195,15.52,104.9425,11.93,12.96,26.28,0,110.3,13.23,12.72,122.8
"2016-03-29 01:18:00",1499127,3.805,167,9.11,1.255,16.92,104.9425,11.93,13.09,26.42,0,110.4,13.18,12.72,129.0
"2016-03-29 01:18:30",1499128,4.837,172.5,8.89,1.42,19.01,104.9419,11.92,13.18,26.56,0,110.4,13.18,12.72,134.5
"2016-03-29 01:19:00",1499129,4.052,174.6,7.945,1.452,18.58,104.9405,11.92,13.15,26.35,0,110.4,13.18,12.71,136.6
"2016-03-29 01:19:30",1499130,3.539,167,8.57,1.362,17.08,104.9357,11.91,13.04,26.66,0,110.3,13.17,12.70,129.0
"2016-03-29 01:20:00",1499131,2.442,157.3,3.409,0.058,14.6,104.9346,11.9,12.93,26.92,0,110.3,13.22,12.70,119.3
"2016-03-29 01:20:30",1499132,2.291,162,3.08,0.158,14.4,104.9309,11.9,12.92,26.92,0,110.3,13.22,12.69,124.0
"2016-03-29 01:21:00",1499133,2.126,162.9,2.502,0.133,14.48,104.9292,11.89,12.91,27.23,0,110.3,13.22,12.68,124.9
"2016-03-29 01:21:30",1499134,1.937,162.2,2.259,0.05,14.75,104.9247,11.88,12.92,27.51,0,110.4,13.22,12.67,124.2
"2016-03-29 01:22:00",1499135,2.38,167.4,4.535,0.154,14.95,104.9227,11.87,12.91,27.29,0,110.3,13.22,12.67,129.4
"2016-03-29 01:22:30",1499136,2.408,174.2,4.971,0.189,15.27,104.9137,11.85,12.91,26.88,0,110.3,13.22,12.64,136.2
"2016-03-29 01:23:00",1499137,3.097,183.8,5.347,0.227,15.6,104.9089,11.84,12.91,25.97,0,110.3,13.22,12.63,145.8
"2016-03-29 01:23:30",1499138,3.674,190.8,8.6,1.394,17.82,104.9086,11.84,13.02,25.54,0,110.3,13.18,12.63,152.8
"2016-03-29 01:24:00",1499139,3.835,187.7,8.83,1.389,18.51,104.9086,11.84,13.07,26.05,0,110.3,13.18,12.63,149.7
"2016-03-29 01:24:30",1499140,4.293,184.9,7.811,1.377,18.21,104.9086,11.84,13.05,26.24,0,110.3,13.18,12.63,146.9
"2016-03-29 01:25:00",1499141,4.528,186.8,7.455,1.295,18.44,104.9086,11.84,13.09,26.26,0,110.3,13.18,12.63,148.8
"2016-03-29 01:25:30",1499142,2.814,181.1,3.262,0.176,14.86,104.9086,11.84,12.9,26.21,0,110.3,13.23,12.63,143.1
"2016-03-29 01:26:00",1499143,2.82,185,5.597,0.267,14.4,104.9086,11.84,12.86,26.1,0,110.3,13.23,12.63,147.0
"2016-03-29 01:26:30",1499144,2.831,190.5,8.63,0.14,14.35,104.9086,11.84,12.84,26.17,0,110.3,13.23,12.63,152.5
"2016-03-29 01:27:00",1499145,2.921,191.3,6.356,0.214,14.67,104.9078,11.84,12.85,26.05,0,110.3,13.23,12.63,153.3
"2016-03-29 01:27:30",1499146,2.932,192.4,3.988,0.203,15,104.9049,11.83,12.84,26.06,0,110.3,13.23,12.62,154.4
"2016-03-29 01:28:00",1499147,2.707,193,4.52,0.345,15.27,104.9024,11.82,12.85,25.85,0,110.3,13.23,12.62,155.0
"2016-03-29 01:28:30",1499148,3.405,197.4,2.83,0.697,16.08,104.8996,11.82,12.93,25.64,0,110.3,13.19,12.61,159.4
"2016-03-29 01:29:00",1499149,4.675,201.8,8.31,1.395,18.16,104.8951,11.8,12.97,25.81,0,110.3,13.18,12.60,163.8
"2016-03-29 01:29:30",1499150,4.655,204,6.746,1.242,17.52,104.8914,11.79,13.02,25.1,0,110.3,13.18,12.59,166.0
"2016-03-29 01:30:00",1499151,4.969,206.2,7.778,1.435,18.56,104.8907,11.79,13.06,25.07,0,110.3,13.18,12.59,168.2
"2016-03-29 01:30:30",1499152,4.774,197.4,7.061,1.506,16.74,104.8828,11.77,12.92,24.06,0,110.3,13.18,12.57,159.4
"2016-03-29 01:31:00",1499153,3.843,199,2.762,0.283,14.98,104.88,11.77,12.83,23.81,0,110.3,13.23,12.56,161.0
"2016-03-29 01:31:30",1499154,2.962,193,11.48,0.316,14.73,104.8789,11.76,12.82,24.39,0,110.3,13.23,12.56,155.0
"2016-03-29 01:32:00",1499155,2.44,185.1,4.452,0.253,14.85,104.881,11.77,12.81,25.34,0,110.3,13.23,12.56,147.1
"2016-03-29 01:32:30",1499156,3.228,199.6,5.027,0.261,15.06,104.8818,11.77,12.82,25.16,0,110.3,13.23,12.56,161.6
"2016-03-29 01:33:00",1499157,3.454,202.7,6.185,0.346,15.26,104.8815,11.77,12.82,25.05,0,110.3,13.23,12.56,164.7
"2016-03-29 01:33:30",1499158,3.087,197.3,4.171,0.571,15.66,104.883,11.77,12.81,25.15,0,110.3,13.19,12.57,159.3
"2016-03-29 01:34:00",1499159,4.314,198.2,11.73,1.453,18.46,104.8845,11.78,12.99,25.52,0,110.3,13.18,12.57,160.2
"2016-03-29 01:34:30",1499160,4.355,211,7.21,1.385,18.96,104.886,11.78,13.06,25.61,0,110.3,13.19,12.57,173.0
"2016-03-29 01:35:00",1499161,2.903,205.9,4.611,0.762,15.78,104.8839,11.78,12.89,25.18,0,110.3,13.19,12.57,167.9
"2016-03-29 01:35:30",1499162,3.741,201.1,8.91,1.657,15.84,104.8839,11.78,12.85,25.06,0,110.3,13.18,12.57,163.1
"2016-03-29 01:36:00",1499163,4.352,207.9,6.132,1.341,16.32,104.886,11.78,13,24.8,0,110.3,13.18,12.57,169.9
"2016-03-29 01:36:30",1499164,4.018,211.4,9.7,1.407,16.18,104.8839,11.78,12.86,24.82,0,110.3,13.18,12.57,173.4
"2016-03-29 01:37:00",1499165,2.953,206.2,3.856,0.299,14.8,104.8833,11.77,12.82,25.13,0,110.3,13.22,12.57,168.2
"2016-03-29 01:37:30",1499166,2.765,202,5.664,0.251,14.95,104.8845,11.78,12.81,25.2,0,110.3,13.22,12.57,164.0
"2016-03-29 01:38:00",1499167,2.808,197.7,7.903,0.177,15.04,104.886,11.78,12.81,25.41,0,110.3,13.22,12.57,159.7
"2016-03-29 01:38:30",1499168,2.375,188,2.582,0.111,15.24,104.8889,11.79,12.83,26.32,0,110.3,13.22,12.58,150.0
"2016-03-29 01:39:00",1499169,3.867,203.1,8.83,1.537,18.2,104.8919,11.8,13,26.86,0,110.3,13.18,12.59,165.1
"2016-03-29 01:39:30",1499170,3.766,213.3,8.84,1.447,17.81,104.894,11.8,13.07,26.66,0,110.3,13.18,12.59,175.3
"2016-03-29 01:40:00",1499171,3.046,202.6,7.881,1.121,15.84,104.8916,11.79,12.84,26.31,0,110.3,13.18,12.59,164.6
"2016-03-29 01:40:30",1499172,2.561,206.4,2.283,0.135,14.55,104.8919,11.8,12.81,26.3,0,110.3,13.23,12.59,168.4
"2016-03-29 01:41:00",1499173,2.457,207.6,2.953,0.277,14.64,104.8955,11.8,12.81,26.34,0,110.3,13.23,12.60,169.6
"2016-03-29 01:41:30",1499174,3.985,211.5,7.896,1.453,17.39,104.8972,11.81,13.01,26.59,0,110.3,13.18,12.60,173.5
"2016-03-29 01:42:00",1499175,3.187,207.6,6.384,1.215,16.13,104.8943,11.8,12.91,26.6,0,110.3,13.19,12.60,169.6
"2016-03-29 01:42:30",1499176,2.458,208.2,2.785,0.087,14.82,104.893,11.8,12.8,26.5,0,110.3,13.23,12.59,170.2
"2016-03-29 01:43:00",1499177,2.399,211.3,1.627,0.071,14.91,104.8885,11.79,12.8,26.38,0,110.3,13.23,12.58,173.3
"2016-03-29 01:43:30",1499178,2.31,217.9,2.192,0.084,14.98,104.8814,11.77,12.78,26.3,0,110.3,13.23,12.56,179.9
"2016-03-29 01:44:00",1499179,2.415,219.7,1.431,0.091,15.48,104.883,11.77,12.8,26.13,0,110.3,13.23,12.57,181.7
"2016-03-29 01:44:30",1499180,3.967,229.3,7.874,1.414,18.72,104.8757,11.75,13.06,26.4,0,110.3,13.19,12.55,191.3
"2016-03-29 01:45:00",1499181,3.655,226.3,7.835,1.456,18,104.8686,11.74,12.98,26.44,0,110.3,13.19,12.53,188.3
"2016-03-29 01:45:30",1499182,2.021,214.4,7.6,0.165,14.68,104.8666,11.73,12.77,26.44,0,110.3,13.23,12.52,176.4
"2016-03-29 01:46:00",1499183,2.804,216,6.566,0.555,14.59,104.8678,11.73,12.76,26.41,0,110.3,13.23,12.53,178.0
"2016-03-29 01:46:30",1499184,2.297,210.8,5.613,0.267,14.38,104.8696,11.74,12.76,25.97,0,110.3,13.23,12.53,172.8
"2016-03-29 01:47:00",1499185,2.819,230,6.414,1.246,15.72,104.8687,11.74,12.82,26.59,0,110.3,13.19,12.53,192.0
"2016-03-29 01:47:30",1499186,3.702,238,10.15,1.456,17.66,104.8684,11.74,12.96,27.18,0,110.3,13.19,12.53,200.0